Погода в Нуреке

Таджикистан     38°23′21″N   69°19′02″E
темп.,
°C
ветер,
м/с
пор.,
м/с
влажн.,
%
обл.,
%
осадки,
мм/ч
давл.,
гПа
погр.,
м
20 января, ср
ср2023:00+4вюв228299 3.5 102224
02:00+3в128587 2.4 102322
05:00+3всв337980 2.4 102529
08:00+3св55740 0.0 102669
11:00+8св455718 0.0 1024318
14:00+10св44430 0.0 1021692
17:00+7св45530 0.0 1021100
20:00+4св55430 0.0 102286
21 января, чт
чт2123:00+3св66360 0.0 102175
02:00+3всв66330 0.0 102078
05:00+3св773050 0.0 101889
08:00+3св792797 0.0 101697
11:00+9св462779 0.0 1012181
14:00+12в222358 0.0 1008378
17:00+8в333529 0.0 100738
20:00+5всв453090 0.0 100850
22 января, пт
пт2223:00+5св333281 0.0 100826
02:00+3зсз3470100 0.5 1013246
05:000ююв3399100 11.1 1019225
08:00−2ююз4498100 10.0 1025303
11:00−4ю2395100 15.3 1030372
14:00−6юв3493100 2.3 1033548
17:00−7ю1195100 3.2 1037124
20:00−8ю1197100 0.9 104139
23 января, сб
сб2323:00−8в1196100 1.5 104325
02:00−10всв2389100 0.3 104432
05:00−11всв3381100 0.4 104434
08:00−12всв347236 0.0 104631
11:00−6всв126318 0.0 1044282
14:00−5зюз21690 0.0 1041400
17:00−9с11870 0.0 104021
20:00−11св44620 0.0 104226
24 января, вс
вс2423:00−10всв44570 0.0 104231
02:00−10всв45560 0.0 104137
05:00−10всв45540 0.0 103935
08:00−9всв55530 0.0 103939
11:00−2всв23650 0.0 1035109
14:000юз11870 0.0 103195
17:00−4св12740 0.0 103022
20:00−5всв44510 0.0 103126